Wind_Speed
58 60 62 63 63 62 60 59 55 48 42 39 39 41 43 46 49 51 52 53 53 53 52 49 46 44 41 39 37 36 34 32 27 22 24 26 27 27 27 27 26 25 25
61 63 64 63 62 61 59 53 46 41 38 38 40 43 46 49 52 53 53 53 53 52 49 47 44 42 40 38 35 33 32 30 26 21 22 23 24 25 24 23 23 22 21
62 64 63 62 60 57 52 45 39 38 38 40 43 46 49 52 53 54 53 52 50 48 45 43 41 40 38 36 33 31 30 28 25 21 20 22 22 22 21 21 20 18 18
63 62 61 58 56 51 44 39 38 38 40 43 46 50 52 54 54 53 51 49 47 45 42 40 38 36 34 32 31 29 27 25 23 20 19 20 20 20 19 18 17 16 15
60 59 57 54 51 44 39 38 38 40 43 46 50 52 53 53 52 51 48 46 45 42 40 39 36 33 31 29 27 25 24 22 20 18 17 17 17 17 16 15 14 13 13
57 55 53 49 44 39 38 39 41 44 47 50 52 53 53 52 51 49 46 44 42 39 37 36 33 30 27 24 22 20 19 17 16 15 14 14 13 13 13 13 12 11 10
52 51 48 42 38 38 39 41 44 47 50 52 53 52 52 51 49 46 44 42 40 37 35 33 29 26 23 20 18 16 15 13 12 12 11 11 10 9 10 10 9 7 6
49 46 41 37 37 38 41 44 47 50 52 52 52 52 51 50 47 44 42 41 37 34 32 29 25 22 20 16 14 12 11 9 8 8 7 6 6 6 8 9 7 4 3
44 39 35 35 37 40 43 46 49 51 51 51 51 51 49 47 44 42 39 36 33 30 28 25 22 18 15 12 11 10 9 7 6 5 4 3 3 5 8 8 6 2 1
36 33 34 36 39 42 45 47 48 49 50 50 50 48 46 43 41 38 34 30 28 26 24 22 18 13 10 9 9 9 9 7 7 6 6 5 6 8 9 8 6 5 4
31 32 34 37 40 43 45 46 47 48 48 48 47 45 43 41 37 33 29 26 24 22 21 18 13 7 6 9 10 10 10 9 9 9 9 10 10 10 10 9 8 7 6
30 32 35 38 41 42 43 44 46 46 46 45 44 42 40 37 34 30 26 23 21 18 16 12 6 3 7 11 12 12 12 12 13 12 12 12 12 11 11 10 9 9 10
30 33 36 38 40 41 42 44 44 44 44 42 40 38 35 33 30 27 24 20 17 14 10 6 1 5 10 13 14 14 15 15 15 14 12 12 12 12 12 11 11 12 14
31 34 36 37 38 40 41 41 41 41 40 38 35 33 31 29 27 25 20 16 13 9 5 1 4 8 13 15 17 17 18 18 16 14 13 12 12 12 12 12 13 15 18
32 35 36 37 38 39 39 39 39 38 37 34 31 30 28 26 24 20 15 12 9 5 4 5 8 11 15 18 19 19 19 19 17 16 15 14 13 13 14 15 17 20 23
32 34 35 36 37 37 36 36 37 37 34 32 30 29 28 25 21 16 12 10 8 6 6 8 11 13 17 20 21 21 20 19 18 16 15 15 14 14 15 17 20 24 27
32 34 35 36 35 35 35 35 36 36 33 31 29 28 26 22 17 13 10 10 9 7 9 11 13 16 19 21 22 22 21 20 18 17 16 15 15 15 17 20 24 27 29
32 33 34 34 33 33 34 34 35 35 33 31 29 27 25 20 15 11 9 10 9 8 10 12 14 17 19 21 22 22 21 20 18 16 15 16 16 17 19 22 25 28 28
31 32 33 32 32 32 33 33 34 34 33 31 28 26 23 19 14 10 9 10 10 9 11 13 15 17 18 20 20 21 20 19 17 16 15 16 16 17 19 23 26 27 27
31 31 31 31 31 31 31 32 32 32 32 30 27 25 23 19 14 11 10 11 10 9 12 14 15 17 18 18 19 19 19 19 18 17 16 16 16 18 19 22 24 25 24
30 30 30 30 30 30 30 31 31 31 30 30 28 26 24 20 15 11 10 12 12 10 12 14 15 16 16 17 18 18 18 18 18 18 17 17 17 18 19 20 21 21 20
29 29 30 30 30 30 30 30 29 29 29 29 28 26 24 21 18 12 9 10 12 11 11 13 15 15 16 16 16 17 17 18 18 18 18 17 17 17 17 18 18 18 17
29 30 31 31 31 30 29 29 28 27 28 28 27 25 23 21 19 15 11 9 10 11 10 12 14 14 15 15 15 15 16 17 17 18 18 18 17 16 15 15 15 15 15
30 31 33 33 32 31 29 27 26 26 26 27 27 25 22 20 19 17 14 11 10 10 10 11 13 14 14 15 15 14 14 15 16 17 18 18 16 15 14 13 13 13 13
32 34 35 35 33 31 29 27 26 25 25 26 27 27 24 20 18 17 16 15 13 11 10 11 12 14 14 14 14 14 14 14 15 16 17 17 16 15 14 13 12 12 13
35 37 37 36 33 31 28 26 25 24 23 24 26 27 26 23 19 17 16 15 15 13 12 11 12 14 14 14 14 14 14 14 14 15 15 16 16 16 15 14 13 13 13
Wind_Direction
311 312 312 311 311 311 310 309 307 304 302 303 305 308 310 311 312 313 313 313 312 309 306 301 295 290 287 284 285 287 290 291 291 280 270 267 267 269 271 272 272 271 272
312 312 312 312 311 311 310 308 305 303 303 306 308 310 312 313 313 313 312 312 311 309 306 302 296 290 285 282 282 284 286 288 287 279 271 269 268 269 271 270 269 268 270
312 312 311 311 311 310 309 307 304 304 306 308 310 312 312 313 313 312 312 311 310 309 307 304 299 292 285 281 280 281 283 284 283 278 270 268 270 271 269 266 262 262 268
311 311 311 311 311 310 308 305 305 306 308 310 312 313 313 313 313 312 311 310 308 308 308 306 302 295 287 280 278 278 279 280 279 276 270 268 271 270 265 260 257 258 265
311 311 311 311 310 308 306 306 307 308 310 312 314 315 314 314 313 312 310 308 307 307 308 307 304 298 290 281 276 274 274 275 273 274 272 270 269 267 260 252 250 254 265
311 311 311 311 309 307 306 307 309 310 312 314 315 315 314 314 313 312 309 306 305 305 307 307 304 299 292 283 275 269 267 264 265 271 272 269 269 263 250 242 242 250 268
311 310 310 309 307 307 308 309 311 313 315 316 316 316 315 315 314 312 310 306 304 305 305 306 302 297 291 281 272 264 257 255 261 264 265 264 264 251 235 225 227 243 273
310 309 308 307 308 309 311 313 315 316 317 318 318 318 317 316 315 314 311 307 306 305 305 305 302 295 287 274 262 253 245 246 250 252 252 255 249 230 210 203 206 228 293
309 308 307 308 310 313 315 316 318 319 319 319 319 319 319 318 317 315 313 310 308 306 306 306 303 294 281 261 243 232 225 225 226 220 214 206 194 178 174 174 172 158 49
307 307 309 311 314 316 318 319 320 321 321 321 321 321 321 320 319 318 316 313 310 309 308 307 302 288 265 234 215 203 199 196 187 175 157 139 136 142 147 150 144 125 102
306 309 312 315 318 319 321 322 323 324 324 324 324 324 324 323 323 323 322 318 315 313 312 310 300 274 224 195 185 179 176 173 167 158 147 137 135 137 138 138 134 126 117
309 313 316 319 321 323 325 326 327 327 328 328 328 328 328 328 328 329 326 323 320 317 315 311 294 218 175 169 166 164 162 161 156 149 143 139 137 138 138 136 135 131 131
313 317 321 323 326 328 330 331 331 331 331 331 331 331 331 332 332 332 330 328 326 324 321 314 231 153 154 156 155 154 153 153 151 146 142 141 143 143 142 141 140 138 137
318 322 325 328 332 334 335 334 334 334 335 334 335 336 337 338 338 335 335 336 336 336 340 56 126 136 145 148 150 151 151 150 146 143 142 144 146 145 144 143 141 141 140
323 326 330 334 337 338 338 337 338 338 339 340 341 342 343 343 343 342 344 351 0 19 62 100 117 131 141 144 146 148 149 148 144 140 139 139 140 139 138 138 141 142 140
329 333 336 339 340 340 341 342 343 344 345 346 347 348 347 347 350 356 6 20 37 59 81 98 115 128 138 143 146 146 146 145 143 141 140 138 136 134 133 135 139 141 140
335 339 341 343 343 344 345 347 349 350 352 353 354 355 354 356 1 13 30 42 49 68 87 99 116 128 136 141 146 148 149 148 144 140 139 138 134 131 132 135 138 139 140
342 345 346 346 346 348 349 351 354 356 357 357 359 2 4 7 14 31 48 49 53 75 94 103 118 129 137 141 146 151 153 152 147 141 140 139 134 131 132 136 139 140 141
349 349 349 349 350 351 353 356 359 1 2 2 4 6 11 17 26 43 54 52 56 83 102 106 119 130 138 144 149 153 156 157 154 149 144 142 136 132 134 137 140 142 144
354 354 353 354 354 355 357 360 2 5 6 9 10 13 18 23 32 49 59 56 62 91 108 110 118 131 140 146 151 155 158 159 158 155 151 146 141 137 136 140 143 145 148
358 358 358 358 358 359 1 2 5 7 10 12 16 19 23 28 36 53 64 59 63 88 114 116 118 128 140 148 154 156 158 159 159 159 156 150 145 141 140 142 146 149 152
2 2 2 1 1 2 3 5 8 11 13 16 19 23 26 30 36 49 66 67 63 80 111 123 122 127 137 147 153 157 158 158 159 160 158 154 150 146 142 143 147 152 155
6 5 4 4 3 4 5 7 10 14 17 20 22 25 28 32 37 45 61 72 72 77 100 124 128 128 134 144 151 155 158 158 157 158 159 157 154 150 146 145 147 151 156
11 9 7 6 5 5 7 9 12 16 20 23 25 27 29 34 39 45 54 67 78 84 99 120 131 128 129 135 141 148 155 159 160 161 162 162 160 158 156 154 154 156 158
15 12 9 8 7 7 9 11 14 19 23 25 28 29 32 35 41 47 54 63 74 82 96 116 130 132 127 127 132 139 146 152 158 161 165 169 170 170 168 167 166 166 168
18 15 12 11 11 12 13 15 18 22 27 30 32 34 36 39 43 49 55 60 67 76 85 106 125 130 130 127 128 130 135 141 149 157 164 169 173 176 179 179 179 179 179
Height
5751 5743 5736 5727 5719 5710 5702 5694 5685 5678 5672 5666 5661 5655 5648 5641 5633 5625 5617 5609 5601 5592 5585 5579 5573 5569 5565 5562 5560 5557 5554 5551 5551 5550 5547 5546 5545 5546 5546 5546 5546 5545 5544
5740 5732 5724 5715 5707 5698 5690 5682 5675 5669 5663 5657 5651 5645 5638 5630 5622 5613 5605 5596 5588 5580 5573 5566 5561 5556 5553 5551 5549 5548 5546 5544 5543 5542 5540 5539 5539 5539 5539 5539 5538 5537 5536
5728 5720 5712 5704 5695 5687 5679 5672 5666 5660 5655 5649 5642 5635 5627 5618 5609 5600 5592 5584 5576 5568 5561 5554 5549 5544 5541 5540 5539 5538 5537 5536 5535 5534 5534 5532 5532 5532 5532 5532 5531 5531 5530
5717 5709 5701 5693 5685 5677 5670 5664 5658 5652 5646 5640 5632 5624 5615 5606 5597 5588 5579 5571 5563 5556 5550 5544 5538 5533 5531 5530 5530 5529 5529 5529 5528 5527 5527 5526 5526 5526 5526 5526 5526 5526 5525
5706 5698 5690 5682 5674 5667 5661 5655 5650 5644 5637 5629 5621 5612 5603 5593 5584 5576 5568 5559 5552 5546 5539 5533 5528 5524 5521 5520 5521 5521 5522 5522 5521 5521 5521 5521 5520 5520 5521 5521 5521 5521 5521
5695 5687 5680 5672 5665 5659 5654 5648 5641 5634 5627 5618 5610 5600 5590 5581 5572 5564 5556 5548 5541 5536 5530 5524 5519 5515 5513 5512 5513 5514 5515 5515 5516 5516 5515 5515 5515 5516 5516 5517 5518 5519 5518
5685 5678 5671 5664 5658 5652 5646 5640 5632 5624 5616 5607 5597 5588 5578 5569 5561 5552 5544 5536 5531 5526 5521 5516 5511 5508 5506 5505 5506 5507 5509 5510 5511 5511 5511 5511 5512 5512 5513 5514 5516 5517 5516
5677 5670 5663 5657 5651 5645 5638 5631 5623 5614 5604 5595 5585 5576 5567 5558 5549 5541 5533 5525 5520 5516 5512 5507 5504 5501 5499 5499 5501 5502 5504 5505 5506 5507 5508 5508 5509 5510 5511 5513 5515 5515 5515
5669 5662 5657 5651 5645 5638 5630 5622 5613 5603 5593 5584 5574 5565 5556 5547 5538 5531 5523 5516 5511 5507 5503 5500 5497 5494 5493 5494 5496 5498 5500 5502 5504 5505 5506 5507 5507 5509 5510 5513 5515 5515 5515
5662 5656 5651 5645 5638 5630 5622 5613 5603 5593 5583 5573 5564 5555 5546 5537 5529 5522 5515 5508 5503 5499 5496 5493 5490 5489 5489 5490 5492 5495 5498 5500 5502 5504 5506 5507 5508 5509 5511 5513 5515 5516 5516
5656 5651 5646 5639 5631 5623 5614 5604 5594 5585 5575 5565 5555 5545 5537 5528 5521 5514 5507 5502 5497 5493 5490 5487 5485 5484 5485 5487 5490 5493 5496 5499 5502 5504 5506 5507 5509 5511 5513 5514 5516 5517 5518
5652 5646 5640 5632 5624 5615 5605 5596 5586 5576 5566 5556 5547 5537 5528 5521 5514 5507 5502 5496 5492 5489 5486 5483 5482 5482 5484 5486 5489 5492 5496 5499 5502 5505 5507 5509 5510 5512 5514 5516 5518 5519 5520
5647 5641 5634 5626 5616 5607 5598 5588 5579 5569 5560 5550 5541 5532 5523 5515 5508 5502 5497 5492 5488 5485 5483 5481 5480 5481 5483 5486 5489 5493 5496 5500 5503 5506 5509 5510 5512 5514 5516 5518 5519 5521 5522
5643 5636 5628 5619 5610 5601 5592 5582 5573 5564 5555 5545 5536 5527 5519 5512 5505 5499 5494 5490 5486 5484 5482 5481 5481 5482 5484 5487 5491 5494 5498 5501 5505 5508 5510 5512 5514 5516 5518 5520 5521 5523 5526
5638 5630 5622 5613 5605 5596 5587 5578 5569 5560 5551 5542 5533 5524 5517 5509 5503 5497 5492 5488 5485 5483 5483 5482 5483 5484 5486 5489 5493 5497 5500 5504 5507 5510 5512 5514 5516 5519 5520 5522 5524 5527 5530
5633 5625 5617 5608 5600 5592 5583 5575 5565 5556 5547 5538 5529 5521 5514 5507 5501 5496 5492 5489 5487 5486 5485 5485 5485 5486 5489 5492 5496 5500 5504 5507 5510 5513 5515 5517 5520 5521 5523 5525 5528 5531 5535
5628 5620 5612 5604 5596 5588 5580 5572 5563 5554 5544 5536 5527 5520 5512 5506 5501 5497 5494 5492 5490 5489 5488 5488 5488 5490 5492 5495 5499 5503 5507 5511 5513 5516 5519 5521 5523 5525 5527 5529 5532 5535 5539
5624 5616 5609 5601 5593 5586 5578 5570 5561 5552 5543 5535 5527 5520 5513 5507 5502 5499 5497 5495 5494 5492 5492 5491 5492 5493 5496 5499 5503 5507 5510 5514 5517 5520 5522 5525 5527 5529 5531 5534 5537 5540 5545
5622 5614 5606 5599 5591 5584 5576 5568 5560 5551 5543 5534 5527 5521 5514 5509 5505 5502 5500 5498 5496 5495 5495 5495 5496 5497 5500 5503 5506 5510 5513 5517 5520 5523 5526 5528 5531 5533 5536 5539 5542 5545 5549
5620 5613 5605 5598 5590 5583 5575 5567 5559 5552 5544 5536 5529 5522 5516 5511 5507 5505 5503 5501 5499 5498 5498 5499 5499 5501 5503 5506 5509 5513 5516 5519 5523 5526 5529 5532 5534 5537 5540 5543 5546 5550 5554
5619 5612 5605 5597 5590 5583 5575 5567 5560 5552 5545 5537 5530 5524 5518 5513 5510 5507 5506 5504 5503 5502 5502 5502 5503 5505 5507 5509 5512 5515 5518 5522 5525 5528 5532 5535 5538 5541 5544 5547 5550 5553 5557
5619 5612 5605 5597 5590 5582 5575 5568 5561 5554 5547 5540 5533 5527 5522 5517 5513 5511 5509 5508 5507 5505 5505 5506 5507 5508 5510 5512 5515 5518 5521 5524 5527 5531 5534 5537 5541 5544 5547 5550 5553 5556 5559
5619 5612 5605 5597 5590 5582 5575 5568 5562 5555 5549 5543 5536 5530 5525 5521 5517 5514 5512 5511 5510 5509 5509 5509 5510 5512 5513 5516 5518 5521 5523 5527 5530 5533 5537 5540 5543 5547 5550 5552 5555 5558 5561
5620 5613 5605 5597 5589 5582 5575 5569 5563 5557 5551 5546 5540 5534 5529 5524 5521 5518 5515 5514 5513 5512 5512 5512 5514 5515 5517 5519 5521 5523 5526 5529 5532 5535 5539 5542 5546 5549 5552 5555 5557 5560 5563
5622 5614 5606 5598 5590 5582 5576 5570 5564 5559 5554 5549 5543 5538 5532 5528 5525 5522 5520 5518 5516 5516 5515 5516 5517 5519 5520 5522 5524 5526 5529 5531 5534 5537 5540 5544 5547 5550 5553 5556 5559 5562 5564
5623 5616 5607 5599 5591 5583 5577 5571 5566 5561 5557 5552 5547 5542 5537 5532 5529 5526 5524 5522 5521 5520 5519 5520 5521 5522 5524 5526 5527 5529 5532 5534 5536 5539 5542 5545 5548 5551 5554 5557 5560 5563 5566